Powrót do katalogu

STARLINK-31336

AktywnyŁącznośćVLEO
NORAD 58944·PAYLOAD·🇺🇸 United States

Wystrzelony Feb 10, 2024 z Vandenberg Space Force Base

Loading…

Następne Przeloty (najbliższe 24 godziny)

TLE

ŚwieżeSource: CelesTrak SupGP

Epoka: Sep 15, 2026, 01:55 UTC

1 58944C 24027P   26258.08034722 -.00007530  00000+0 -22247-3 0  2588
2 58944  53.1578 148.8947 0001198  84.1969 122.5112 15.34393044    19

Śledź STARLINK-31336 w czasie rzeczywistym z AllMySat

Download on the App Store